Weather History for Edinburgh Airport, United Kingdom

Change the Weather History Date:

Monday, October 15, 2012

  Actual Average Record
Temperature  
Mean Temperature 41 °F -  
Max Temperature 50 °F 52 °F 64 °F (2001)
Min Temperature 32 °F 40 °F 32 °F (2012)
Degree Days  
Heating Degree Days 24    
Moisture  
Dew Point 35 °F    
Average Humidity 84    
Maximum Humidity 100    
Minimum Humidity 54    
Precipitation  
Precipitation 0.00 in 0.08 in - ()
Sea Level Pressure  
Sea Level Pressure 29.48 in    
Wind  
Wind Speed 3 mph ()    
Max Wind Speed 8 mph    
Max Gust Speed -    
Visibility 6.2 miles    
Events      
Averages and records for this station are not official NWS values.
T = Trace of Precipitation, MM = Missing Value Source: Averaged Metar Reports

Daily Weather History Graph

Daily Weather History Graph

Search for Another Location

Airport:

Trip Planner

Search our weather history database for the weather conditions in past years. The results will help you decide how hot, cold, wet, or windy it might be!

Date:

Astronomy

Oct. 15, 2012 Rise Set
Actual Time 7:45 AM BST 6:11 PM BST
Civil Twilight 7:07 AM BST 6:49 PM BST
Nautical Twilight 6:24 AM BST 7:32 PM BST
Astronomical Twilight 5:41 AM BST 8:15 PM BST
Moon 7:46 AM BST (10/15) 5:49 PM BST (10/15)
Length of Visible Light 11h 41m
Length of Day
10h 26m
Waning Crescent, 0% of the Moon is Illuminated
Oct 15
Waning Crescent
Oct 15
New
Oct 22
First Quarter
Oct 29
Full
Nov 7
Last Quarter

Hourly Weather History & Observations

Time (BST) Temp. Windchill Dew Point Humidity Pressure Visibility Wind Dir Wind Speed Gust Speed Precip Events Conditions
12:20 AM 41.0 °F 38.0 °F 41.0 °F 100% 29.62 in - WSW 4.6 mph - N/A   Clear
12:50 AM 41.0 °F 39.0 °F 37.4 °F 87% 29.59 in - Variable 3.5 mph - N/A   Clear
1:20 AM 41.0 °F - 39.2 °F 93% 29.59 in - SSW 2.3 mph - N/A   Clear
1:50 AM 41.0 °F - 39.2 °F 93% 29.59 in - Calm Calm - N/A   Clear
2:20 AM 41.0 °F 38.0 °F 39.2 °F 93% 29.59 in 6.2 mi West 4.6 mph - N/A   Partly Cloudy
2:50 AM 39.2 °F 35.9 °F 39.2 °F 100% 29.59 in 6.2 mi SSW 4.6 mph - N/A   Unknown
3:20 AM 37.4 °F - 35.6 °F 93% 29.56 in - West 2.3 mph - N/A   Haze
3:50 AM 35.6 °F 31.7 °F 35.6 °F 100% 29.56 in 6.2 mi WSW 4.6 mph - N/A   Unknown
4:20 AM 35.6 °F 32.8 °F 35.6 °F 100% 29.56 in 6.2 mi WSW 3.5 mph - N/A   Unknown
4:50 AM 35.6 °F 32.8 °F 33.8 °F 93% 29.53 in - WSW 3.5 mph - N/A   Clear
5:20 AM 33.8 °F 29.6 °F 33.8 °F 100% 29.53 in - SW 4.6 mph - N/A   Clear
5:50 AM 33.8 °F - 32.0 °F 93% 29.53 in - Variable 2.3 mph - N/A   Clear
6:20 AM 35.6 °F 30.7 °F 35.6 °F 100% 29.53 in - West 5.8 mph - N/A   Clear
6:50 AM 35.6 °F 30.7 °F 33.8 °F 93% 29.53 in - West 5.8 mph - N/A   Clear
7:20 AM 35.6 °F 29.9 °F 33.8 °F 93% 29.53 in - WSW 6.9 mph - N/A   Clear
7:50 AM 33.8 °F 30.8 °F 32.0 °F 93% 29.50 in - West 3.5 mph - N/A   Clear
8:20 AM 33.8 °F - 33.8 °F 100% 29.50 in - Variable 2.3 mph - N/A   Clear
8:50 AM 35.6 °F 31.7 °F 33.8 °F 93% 29.50 in - West 4.6 mph - N/A   Clear
9:20 AM 37.4 °F 32.1 °F 33.8 °F 87% 29.50 in - West 6.9 mph - N/A   Clear
9:50 AM 39.2 °F 35.9 °F 35.6 °F 87% 29.50 in - WSW 4.6 mph - N/A   Clear
10:20 AM 39.2 °F 35.0 °F 35.6 °F 87% 29.50 in - WSW 5.8 mph - N/A   Clear
10:50 AM 42.8 °F 39.3 °F 37.4 °F 81% 29.47 in - WSW 5.8 mph - N/A   Clear
11:20 AM 44.6 °F 41.4 °F 37.4 °F 76% 29.47 in - WSW 5.8 mph - N/A   Clear
11:50 AM 46.4 °F 42.4 °F 35.6 °F 66% 29.47 in - WSW 8.1 mph - N/A   Clear
12:20 PM 46.4 °F 42.4 °F 35.6 °F 66% 29.47 in 6.2 mi West 8.1 mph - N/A   Partly Cloudy
12:50 PM 48.2 °F - 35.6 °F 62% 29.44 in 6.2 mi WSW 6.9 mph - N/A   Partly Cloudy
1:20 PM 46.4 °F 43.5 °F 33.8 °F 62% 29.44 in 6.2 mi WNW 5.8 mph - N/A   Partly Cloudy
1:50 PM 48.2 °F - 33.8 °F 58% 29.44 in 6.2 mi West 5.8 mph - N/A   Scattered Clouds
2:20 PM 48.2 °F - 33.8 °F 58% 29.44 in 6.2 mi NW 5.8 mph - N/A   Mostly Cloudy
2:50 PM 48.2 °F - 33.8 °F 58% 29.44 in 6.2 mi WNW 4.6 mph - N/A   Mostly Cloudy
3:20 PM 50.0 °F - 33.8 °F 54% 29.44 in 6.2 mi Variable 3.5 mph - N/A   Mostly Cloudy
3:50 PM 48.2 °F - 32.0 °F 54% 29.44 in 6.2 mi West 5.8 mph - N/A   Scattered Clouds
4:20 PM 46.4 °F 43.5 °F 32.0 °F 57% 29.44 in 6.2 mi West 5.8 mph - N/A   Scattered Clouds
4:50 PM 46.4 °F 45.2 °F 33.8 °F 62% 29.42 in 6.2 mi West 3.5 mph - N/A   Scattered Clouds
5:20 PM 46.4 °F - 33.8 °F 62% 29.42 in 6.2 mi WSW 2.3 mph - N/A   Scattered Clouds
5:50 PM 42.8 °F - 33.8 °F 70% 29.42 in 6.2 mi Calm Calm - N/A   Scattered Clouds
6:20 PM 39.2 °F - 35.6 °F 87% 29.42 in 6.2 mi Calm Calm - N/A   Partly Cloudy
6:50 PM 39.2 °F - 35.6 °F 87% 29.42 in - Calm Calm - N/A   Clear
7:20 PM 37.4 °F - 33.8 °F 87% 29.42 in - Calm Calm - N/A   Clear
7:50 PM 35.6 °F - 33.8 °F 93% 29.42 in - Calm Calm - N/A   Clear
8:20 PM 37.4 °F - 33.8 °F 87% 29.42 in - Calm Calm - N/A   Clear
8:50 PM 35.6 °F - 33.8 °F 93% 29.42 in - SSE 2.3 mph - N/A   Clear
9:20 PM 35.6 °F - 32.0 °F 87% 29.42 in - Calm Calm - N/A   Clear
9:50 PM 33.8 °F - 32.0 °F 93% 29.42 in - Variable 2.3 mph - N/A   Clear
10:20 PM 33.8 °F 30.8 °F 32.0 °F 93% 29.42 in - WSW 3.5 mph - N/A   Clear
10:50 PM 32.0 °F - 32.0 °F 100% 29.42 in - Calm Calm - N/A   Clear
11:20 PM 33.8 °F - 32.0 °F 93% 29.39 in - Calm Calm - N/A   Clear
11:50 PM 33.8 °F - 32.0 °F 93% 29.39 in - Variable 2.3 mph - N/A   Clear